Weather History for Chanute, KS

Change the Weather History Date:

Tuesday, March 19, 2013

  Actual Average Record
Temperature  
Mean Temperature 38 °F 48 °F  
Max Temperature 51 °F 59 °F 83 °F (1995)
Min Temperature 24 °F 37 °F 4 °F (1923)
Degree Days  
Heating Degree Days 27 17  
Month to date heating degree days 424 379  
Since 1 July heating degree days 3516 3951  
Cooling Degree Days 0 0  
Month to date cooling degree days 0 0  
Year to date cooling degree days 1 0  
Moisture  
Dew Point 24 °F    
Average Humidity 63    
Maximum Humidity 92    
Minimum Humidity 33    
Precipitation  
Precipitation T in 0.10 in 2.16 in (2012)
Month to date precipitation 0.78 1.78  
Year to date precipitation 6.24 4.94  
Sea Level Pressure  
Sea Level Pressure 30.20 in    
Wind  
Wind Speed 6 mph (ENE)    
Max Wind Speed 17 mph    
Max Gust Speed 23 mph    
Visibility 10 miles    
Events      
T = Trace of Precipitation, MM = Missing Value Source: NWS Daily Summary

Daily Weather History Graph

Daily Weather History Graph

Search for Another Location

Airport:

Trip Planner

Search our weather history database for the weather conditions in past years. The results will help you decide how hot, cold, wet, or windy it might be!

Date:

Astronomy

Mar. 19, 2013 Rise Set
Actual Time 7:26 AM CDT 7:33 PM CDT
Civil Twilight 7:00 AM CDT 7:59 PM CDT
Nautical Twilight 6:29 AM CDT 8:29 PM CDT
Astronomical Twilight 5:59 AM CDT 9:00 PM CDT
Moon 12:23 PM CDT (3/19) 2:14 AM CDT (3/19)
Length of Visible Light 12h 58m
Length of Day
12h 06m
Waxing Crescent, 50% of the Moon is Illuminated
Mar 19
Waxing Crescent
Mar 19
First Quarter
Mar 27
Full
Apr 2
Last Quarter
Apr 10
New

Hourly Weather History & Observations

Time (CDT) Temp. Windchill Dew Point Humidity Pressure Visibility Wind Dir Wind Speed Gust Speed Precip Events Conditions
12:52 AM 39.0 °F 34.0 °F 21.9 °F 50% 30.06 in 10.0 mi NE 6.9 mph - N/A   Clear
1:52 AM 37.0 °F 31.0 °F 21.9 °F 54% 30.09 in 10.0 mi NNE 8.1 mph - N/A   Clear
2:52 AM 36.0 °F 31.1 °F 19.9 °F 52% 30.11 in 10.0 mi ENE 5.8 mph - N/A   Clear
3:52 AM 34.0 °F 29.8 °F 19.9 °F 56% 30.12 in 10.0 mi ENE 4.6 mph - N/A   Clear
4:52 AM 33.1 °F 27.7 °F 19.9 °F 59% 30.11 in 10.0 mi East 5.8 mph - N/A   Clear
5:52 AM 30.9 °F 26.2 °F 19.9 °F 64% 30.13 in 10.0 mi NE 4.6 mph - N/A   Clear
6:52 AM 27.0 °F - 19.9 °F 75% 30.16 in 10.0 mi Calm Calm - N/A   Clear
7:52 AM 27.0 °F - 21.0 °F 78% 30.19 in 10.0 mi Calm Calm - N/A   Clear
8:52 AM 36.0 °F - 27.0 °F 70% 30.20 in 10.0 mi Calm Calm - N/A   Clear
9:52 AM 41.0 °F 39.0 °F 21.0 °F 45% 30.22 in 10.0 mi Variable 3.5 mph - N/A   Clear
10:52 AM 43.0 °F 38.8 °F 16.0 °F 34% 30.22 in 10.0 mi SE 6.9 mph - N/A   Overcast
11:52 AM 45.0 °F 40.6 °F 19.0 °F 36% 30.21 in 10.0 mi ESE 8.1 mph - N/A   Overcast
12:52 PM 48.9 °F - 21.9 °F 35% 30.22 in 10.0 mi East 8.1 mph - 0.00 in   Overcast
1:52 PM 48.9 °F - 23.0 °F 36% 30.22 in 10.0 mi East 9.2 mph - N/A   Overcast
2:52 PM 50.0 °F - 24.1 °F 36% 30.22 in 10.0 mi ENE 11.5 mph 17.3 mph N/A   Clear
3:52 PM 48.9 °F - 25.0 °F 39% 30.22 in 10.0 mi NNE 12.7 mph 19.6 mph N/A   Partly Cloudy
4:52 PM 48.0 °F - 25.0 °F 41% 30.23 in 10.0 mi NE 10.4 mph - N/A   Clear
5:52 PM 46.0 °F 40.2 °F 32.0 °F 58% 30.24 in 10.0 mi NNE 12.7 mph - N/A   Partly Cloudy
6:52 PM 44.1 °F 38.1 °F 33.1 °F 65% 30.25 in 10.0 mi NNE 11.5 mph - N/A   Scattered Clouds
7:52 PM 41.0 °F 35.8 °F 33.1 °F 73% 30.25 in 10.0 mi ENE 8.1 mph - N/A   Partly Cloudy
8:52 PM 39.0 °F 36.8 °F 33.1 °F 79% 30.26 in 10.0 mi ENE 3.5 mph - N/A   Clear
9:52 PM 37.9 °F - 32.0 °F 79% 30.28 in 10.0 mi Calm Calm - N/A   Clear
10:52 PM 30.0 °F - 28.9 °F 96% 30.29 in 10.0 mi Calm Calm - N/A   Clear
11:52 PM 30.0 °F - 28.0 °F 92% 30.28 in 10.0 mi Calm Calm - N/A   Clear